GW5129 Weather Reports


time (UTC)temp
C
wind
direction
speed
KPH
gust
KPH
rain 1hr
cm
rain 24hr
cm
rain mn
cm
humidity
%
barometer
mb
20260510093707 11 96 0.0 0.0 0.00 0.00 0.00 93 1012.6
20260510093204 11 96 1.6 3.2 0.00 0.00 0.00 93 1012.5
20260510092700 11 103 0.0 0.0 0.00 0.00 0.00 92 1012.6
20260510092156 12 93 0.0 0.0 0.00 0.00 0.00 92 1012.6
20260510091652 12 94 0.0 3.2 0.00 0.00 0.00 92 1012.2
20260510091148 12 57 0.0 1.6 0.00 0.00 0.00 92 1012.5
20260510090645 12 297 0.0 0.0 0.00 0.00 0.00 92 1012.4
20260510090142 12 88 0.0 0.0 0.00 0.00 0.00 91 1012.5
20260510085637 12 113 0.0 0.0 0.00 0.00 0.00 91 1012.6
20260510085132 12 116 0.0 0.0 0.00 0.00 0.00 91 1012.6
20260510084629 12 116 0.0 0.0 0.00 0.00 0.00 91 1012.6
20260510084125 12 117 0.0 0.0 0.00 0.00 0.00 91 1012.5
20260510083623 12 116 0.0 0.0 0.00 0.00 0.00 91 1012.4
20260510083119 12 107 0.0 0.0 0.00 0.00 0.00 90 1012.4
20260510082615 12 100 0.0 0.0 0.00 0.00 0.00 90 1012.7
20260510082111 12 100 0.0 0.0 0.00 0.00 0.00 90 1012.7
20260510081606 12 95 0.0 0.0 0.00 0.00 0.00 90 1012.5
20260510081102 12 58 0.0 0.0 0.00 0.00 0.00 89 1012.6
20260510080601 12 38 0.0 0.0 0.00 0.00 0.00 89 1012.4
20260510080058 12 33 0.0 0.0 0.00 0.00 0.00 88 1012.5
20260510075555 12 35 0.0 0.0 0.00 0.00 0.00 88 1012.5
20260510075052 13 35 0.0 0.0 0.00 0.00 0.00 87 1012.2
20260510074550 13 35 0.0 0.0 0.00 0.00 0.00 87 1012.4
20260510074045 13 21 0.0 0.0 0.00 0.00 0.00 87 1012.2
20260510073541 13 16 0.0 0.0 0.00 0.00 0.00 86 1012.1
20260510073039 13 7 0.0 0.0 0.00 0.00 0.00 85 1012.6
20260510072535 13 350 0.0 0.0 0.00 0.00 0.00 84 1012.4
20260510072031 13 350 0.0 0.0 0.00 0.00 0.00 83 1012.6
20260510071527 14 331 0.0 0.0 0.00 0.00 0.00 83 1012.5
20260510071026 14 331 0.0 0.0 0.00 0.00 0.00 82 1012.8
20260510070522 15 291 1.6 1.6 0.00 0.00 0.00 81 1012.2
20260510070019 15 295 0.0 3.2 0.00 0.00 0.00 81 1012.5
20260510065515 15 337 1.6 1.6 0.00 0.00 0.00 80 1012.2
20260510065011 15 108 0.0 1.6 0.00 0.00 0.00 80 1011.9
20260510064508 15 196 3.2 6.4 0.00 0.00 0.00 80 1012.0
20260510064005 15 115 3.2 4.8 0.00 0.00 0.00 80 1012.1
20260510063501 15 187 3.2 3.2 0.00 0.00 0.00 80 1012.1
20260510062959 15 132 1.6 4.8 0.00 0.00 0.00 80 1012.0
20260510062454 15 135 3.2 4.8 0.00 0.00 0.00 80 1012.0
20260510061949 15 225 4.8 9.7 0.00 0.00 0.00 80 1011.9
20260510061447 15 113 3.2 4.8 0.00 0.00 0.00 79 1011.9
20260510060943 15 124 3.2 4.8 0.00 0.00 0.00 79 1012.2
20260510060440 16 134 0.0 3.2 0.00 0.00 0.00 79 1012.1
20260510055936 16 134 1.6 9.7 0.00 0.00 0.00 78 1011.9
20260510055432 16 219 8.0 12.9 0.00 0.00 0.00 79 1012.0
20260510054930 16 181 1.6 6.4 0.00 0.00 0.00 78 1011.8
20260510054425 16 128 8.0 11.3 0.00 0.00 0.00 79 1011.9
20260510053921 16 187 3.2 6.4 0.00 0.00 0.00 79 1011.8
20260510053416 16 196 4.8 6.4 0.00 0.00 0.00 79 1011.9
20260510052913 16 129 3.2 4.8 0.00 0.00 0.00 79 1011.9
20260510052409 15 127 3.2 6.4 0.00 0.00 0.00 79 1012.0
20260510051905 15 129 1.6 3.2 0.00 0.00 0.00 79 1011.8
20260510051402 16 164 1.6 3.2 0.00 0.00 0.00 79 1011.8
20260510050858 15 167 4.8 4.8 0.00 0.00 0.00 79 1011.8
20260510050355 15 135 4.8 6.4 0.00 0.00 0.00 79 1011.9
20260510045852 15 124 3.2 6.4 0.00 0.00 0.00 79 1011.7
20260510045349 15 119 3.2 4.8 0.00 0.00 0.00 80 1011.7
20260510044846 15 91 1.6 3.2 0.00 0.00 0.00 80 1011.9
20260510044343 15 168 3.2 4.8 0.00 0.00 0.00 80 1011.8
20260510043839 15 102 3.2 3.2 0.00 0.00 0.00 80 1011.9
20260510043335 15 118 1.6 3.2 0.00 0.00 0.00 80 1011.8
20260510042833 15 138 1.6 3.2 0.00 0.00 0.00 80 1011.7
20260510042329 15 115 3.2 4.8 0.00 0.00 0.00 79 1011.8
20260510041825 15 148 3.2 3.2 0.00 0.00 0.00 79 1011.7
20260510041323 15 115 1.6 3.2 0.00 0.00 0.00 78 1011.6
20260510040820 15 99 1.6 3.2 0.00 0.00 0.00 78 1011.8
20260510040316 15 213 3.2 3.2 0.00 0.00 0.00 78 1011.8
20260510035812 15 128 1.6 4.8 0.00 0.71 0.71 78 1011.6
20260510035308 15 91 1.6 4.8 0.00 0.71 0.71 78 1011.6
20260510034804 15 125 3.2 3.2 0.00 0.71 0.71 78 1011.5
20260510034302 15 107 6.4 6.4 0.00 0.71 0.71 78 1011.6
20260510033758 16 117 0.0 3.2 0.00 0.71 0.71 77 1011.7
20260510033255 16 99 1.6 3.2 0.00 0.71 0.71 76 1011.6
20260510032751 16 149 1.6 1.6 0.00 0.71 0.71 76 1011.7
20260510032248 16 129 0.0 4.8 0.00 0.71 0.71 76 1011.7
20260510031743 16 127 0.0 1.6 0.00 0.71 0.71 76 1011.7
20260510031239 16 159 3.2 3.2 0.00 0.71 0.71 77 1012.0
20260510030739 16 350 3.2 6.4 0.00 0.71 0.71 79 1012.1
20260510030236 15 314 3.2 6.4 0.00 0.71 0.71 80 1012.4
20260510025733 15 115 3.2 3.2 0.00 0.71 0.71 80 1011.3
20260510025231 15 130 3.2 4.8 0.00 0.71 0.71 80 1011.2
20260510024722 15 154 1.6 4.8 0.00 0.71 0.71 80 1011.3
20260510024219 15 61 0.0 0.0 0.00 0.71 0.71 79 1011.2
20260510023714 15 65 0.0 0.0 0.00 0.71 0.71 79 1011.2
20260510023211 15 69 0.0 0.0 0.00 0.71 0.71 78 1010.8
20260510022707 15 96 0.0 0.0 0.00 0.71 0.71 77 1011.0
20260510022202 15 113 1.6 3.2 0.00 0.71 0.71 77 1011.1
20260510021657 15 105 3.2 4.8 0.00 0.71 0.71 77 1010.9
20260510021155 15 106 0.0 1.6 0.00 0.71 0.71 77 1010.8
20260510020655 15 99 0.0 1.6 0.00 0.71 0.71 77 1010.9
20260510020151 15 80 0.0 1.6 0.00 0.71 0.71 77 1010.8
20260510015647 15 80 0.0 0.0 0.00 0.71 0.71 76 1010.7
20260510015144 15 81 0.0 0.0 0.00 0.71 0.71 75 1010.4
20260510014644 16 124 1.6 4.8 0.00 0.71 0.71 74 1010.5
20260510014142 16 125 4.8 6.4 0.00 0.71 0.71 74 1010.4
20260510013636 16 98 3.2 3.2 0.00 0.71 0.71 74 1010.5
20260510013132 16 115 3.2 4.8 0.00 0.71 0.71 74 1010.4
20260510012632 16 170 3.2 3.2 0.00 0.71 0.71 74 1010.4
20260510012128 16 110 0.0 0.0 0.00 0.71 0.71 74 1010.3
20260510011623 15 126 0.0 1.6 0.00 0.71 0.71 75 1010.0
20260510011119 15 126 1.6 1.6 0.00 0.71 0.71 74 1010.1
20260510010615 16 126 0.0 1.6 0.00 0.71 0.71 73 1009.9
20260510010113 16 126 0.0 3.2 0.00 0.71 0.71 72 1010.1
20260510005608 16 125 0.0 0.0 0.00 0.71 0.71 71 1010.0
20260510005106 16 123 1.6 3.2 0.00 0.71 0.71 71 1009.9
20260510004604 16 122 0.0 0.0 0.00 0.71 0.71 70 1009.8
20260510004102 16 121 0.0 0.0 0.00 0.71 0.71 69 1009.9
20260510003558 17 121 0.0 0.0 0.00 0.71 0.71 67 1009.9
20260510003054 17 121 0.0 3.2 0.00 0.71 0.71 67 1009.8
20260510002548 17 110 0.0 1.6 0.00 0.71 0.71 68 1009.7
20260510002046 17 107 1.6 3.2 0.00 0.71 0.71 67 1009.9
20260510001543 17 243 1.6 1.6 0.00 0.71 0.71 67 1009.9
20260510001042 17 234 0.0 0.0 0.00 0.71 0.71 67 1009.7
20260510000542 17 180 0.0 0.0 0.00 0.71 0.71 66 1009.6
20260510000039 18 131 0.0 0.0 0.00 0.71 0.71 65 1009.6
20260509235535 18 161 1.6 3.2 0.00 0.71 0.71 64 1009.6
20260509235032 18 170 1.6 3.2 0.00 0.71 0.71 63 1009.5
20260509234528 18 263 0.0 3.2 0.00 0.71 0.71 63 1009.3
20260509234026 19 215 3.2 6.4 0.00 0.71 0.71 62 1009.3
20260509233523 19 251 1.6 4.8 0.00 0.71 0.71 62 1009.4
20260509233021 19 153 3.2 4.8 0.00 0.71 0.71 60 1009.3
20260509232517 19 102 3.2 4.8 0.00 0.71 0.71 59 1009.2
20260509232014 19 133 1.6 1.6 0.00 0.71 0.71 58 1009.4
20260509231510 19 215 6.4 11.3 0.00 0.71 0.71 58 1009.4
20260509231008 19 236 6.4 9.7 0.00 0.71 0.71 58 1009.2
20260509230505 20 180 4.8 11.3 0.00 0.71 0.71 57 1009.3
20260509230001 20 187 6.4 11.3 0.00 0.71 0.71 58 1009.3
20260509225457 20 227 4.8 11.3 0.00 0.71 0.71 57 1009.4
20260509224953 20 105 4.8 9.7 0.00 0.71 0.71 56 1009.5
20260509224448 20 98 6.4 11.3 0.00 0.71 0.71 55 1009.3
20260509223946 20 260 1.6 9.7 0.00 0.71 0.71 55 1009.4
20260509223442 20 159 4.8 11.3 0.00 0.71 0.71 55 1009.5
20260509222940 20 186 3.2 11.3 0.00 0.71 0.71 55 1009.5
20260509222435 20 186 6.4 16.1 0.00 0.71 0.71 54 1009.4
20260509221931 20 275 6.4 16.1 0.00 0.71 0.71 54 1009.4
20260509221428 20 192 1.6 12.9 0.00 0.71 0.71 53 1009.7
20260509220923 21 270 3.2 11.3 0.00 0.71 0.71 54 1009.6
20260509220420 21 199 4.8 6.4 0.00 0.71 0.71 54 1009.7
20260509215916 21 101 3.2 12.9 0.00 0.71 0.71 55 1009.8
20260509215411 20 193 4.8 9.7 0.00 0.71 0.71 54 1009.6
20260509214909 21 156 4.8 6.4 0.00 0.71 0.71 55 1009.5
20260509214406 21 178 8.0 9.7 0.00 0.71 0.71 55 1009.6
20260509213904 20 216 8.0 11.3 0.00 0.71 0.71 56 1009.8
20260509213359 20 216 8.0 11.3 0.00 0.71 0.71 56 1009.8
20260509212857 20 103 6.4 9.7 0.00 0.71 0.71 56 1009.8
20260509212355 20 295 1.6 4.8 0.00 0.71 0.71 58 1009.7
20260509211851 20 158 3.2 4.8 0.00 0.71 0.71 59 1009.8
20260509211346 19 163 3.2 4.8 0.00 0.71 0.71 58 1009.9
20260509210843 20 119 6.4 6.4 0.00 0.71 0.71 57 1009.8
20260509210340 20 114 6.4 9.7 0.00 0.71 0.71 56 1009.6
20260509205840 20 173 9.7 14.5 0.00 0.71 0.71 57 1009.6
20260509205334 21 156 3.2 9.7 0.00 0.71 0.71 56 1009.7
20260509204831 21 300 1.6 9.7 0.00 0.71 0.71 57 1009.9
20260509204328 20 214 4.8 12.9 0.00 0.71 0.71 55 1009.9
20260509203824 20 203 6.4 9.7 0.00 0.71 0.71 56 1010.0
20260509203321 20 230 8.0 12.9 0.00 0.71 0.71 57 1010.1
20260509202817 20 197 0.0 9.7 0.00 0.71 0.71 58 1009.8
20260509202314 20 227 6.4 14.5 0.00 0.71 0.71 59 1010.1
20260509201813 20 162 6.4 11.3 0.00 0.71 0.71 60 1010.2
20260509201310 20 156 4.8 11.3 0.00 0.71 0.71 59 1010.2
20260509200806 21 156 3.2 12.9 0.00 0.71 0.71 61 1010.3
20260509200302 20 232 1.6 12.9 0.00 0.71 0.71 60 1010.5
20260509195758 21 269 0.0 6.4 0.00 0.71 0.71 62 1010.4
20260509195253 19 212 3.2 11.3 0.00 0.71 0.71 62 1010.2
20260509194748 20 171 1.6 16.1 0.00 0.71 0.71 62 1010.6
20260509194244 20 112 8.0 12.9 0.00 0.71 0.71 63 1010.4
20260509193742 19 95 4.8 6.4 0.00 0.71 0.71 65 1010.3
20260509193241 19 185 3.2 9.7 0.00 0.71 0.71 64 1010.3
20260509192738 20 175 3.2 14.5 0.00 0.71 0.71 64 1010.3
20260509192238 19 93 3.2 4.8 0.00 0.71 0.71 66 1010.6
20260509191734 20 93 4.8 9.7 0.00 0.71 0.71 64 1010.7
20260509191230 19 241 4.8 9.7 0.00 0.71 0.71 65 1010.7
20260509190726 19 218 3.2 16.1 0.00 0.71 0.71 66 1011.0
20260509190223 19 159 6.4 9.7 0.00 0.71 0.71 67 1010.9
20260509185721 18 156 3.2 6.4 0.00 0.71 0.71 67 1011.0
20260509185217 19 102 4.8 12.9 0.00 0.71 0.71 67 1011.2
20260509184715 19 169 3.2 6.4 0.00 0.71 0.71 68 1011.0
20260509184212 18 35 1.6 6.4 0.00 0.71 0.71 70 1011.2
20260509183708 18 194 6.4 11.3 0.00 0.71 0.71 70 1011.3
20260509183209 18 125 4.8 9.7 0.00 0.71 0.71 71 1011.3
20260509182704 18 160 4.8 6.4 0.00 0.71 0.71 70 1011.3
20260509182202 18 121 4.8 6.4 0.00 0.71 0.71 72 1011.4
20260509181700 18 95 1.6 4.8 0.00 0.71 0.71 74 1011.3
20260509181157 17 118 3.2 12.9 0.00 0.71 0.71 73 1011.5
20260509180654 17 212 8.0 12.9 0.00 0.71 0.71 75 1011.1
20260509180150 17 171 4.8 11.3 0.00 0.71 0.71 76 1011.2
20260509175646 17 205 3.2 11.3 0.00 0.71 0.71 77 1011.5
20260509175143 17 187 6.4 9.7 0.00 0.71 0.71 77 1011.3
20260509174639 17 114 3.2 4.8 0.00 0.71 0.71 79 1011.5
20260509174134 16 194 3.2 6.4 0.00 0.71 0.71 80 1011.5
20260509173630 16 228 3.2 4.8 0.00 0.71 0.71 80 1011.4
20260509173126 16 117 3.2 6.4 0.00 0.71 0.71 81 1011.6
20260509172623 16 197 4.8 6.4 0.00 0.71 0.71 81 1011.5
20260509172119 16 166 3.2 9.7 0.00 0.71 0.71 82 1011.5
20260509171614 15 144 3.2 9.7 0.00 0.71 0.71 83 1011.4
20260509171111 15 126 6.4 11.3 0.00 0.71 0.71 83 1011.7
20260509170607 15 165 3.2 6.4 0.00 0.71 0.71 84 1011.6
20260509165602 15 130 3.2 9.7 0.00 0.71 0.71 85 1011.5
20260509165058 15 145 4.8 9.7 0.00 0.71 0.71 85 1011.6
20260509164554 15 147 4.8 9.7 0.00 0.71 0.71 86 1011.9
20260509164049 15 140 6.4 14.5 0.00 0.71 0.71 87 1011.4
20260509163549 15 166 3.2 4.8 0.00 0.71 0.71 88 1011.6
20260509163049 15 181 6.4 6.4 0.00 0.71 0.71 88 1011.4
20260509162546 15 272 3.2 3.2 0.00 0.71 0.71 89 1011.4
20260509162042 14 225 4.8 4.8 0.00 0.71 0.71 90 1011.6
20260509161539 14 243 1.6 3.2 0.00 0.71 0.71 91 1011.4
20260509161038 13 126 1.6 6.4 0.00 0.71 0.71 91 1011.3
20260509160535 13 252 3.2 3.2 0.00 0.71 0.71 91 1011.2
20260509160030 13 158 6.4 9.7 0.00 0.71 0.71 92 1011.1
20260509155527 13 164 3.2 6.4 0.00 0.71 0.71 92 1011.0
20260509155023 13 151 1.6 4.8 0.00 0.71 0.71 93 1010.9
20260509154519 13 239 0.0 3.2 0.00 0.71 0.71 93 1011.0
20260509154017 13 111 3.2 6.4 0.00 0.71 0.71 94 1010.8
20260509153514 13 116 3.2 6.4 0.00 0.71 0.71 94 1010.9
20260509153011 13 109 1.6 4.8 0.00 0.71 0.71 94 1010.9
20260509152506 13 144 6.4 6.4 0.00 0.71 0.71 94 1010.9
20260509152003 13 199 3.2 4.8 0.00 0.71 0.71 95 1011.1
20260509151459 13 161 3.2 4.8 0.00 0.71 0.71 95 1011.2
20260509150958 13 239 3.2 9.7 0.00 0.71 0.71 95 1011.2
20260509150455 13 227 1.6 4.8 0.00 0.71 0.71 96 1010.9
20260509145953 12 246 3.2 4.8 0.00 0.71 0.71 96 1011.0
20260509145448 12 163 3.2 6.4 0.00 0.71 0.71 96 1010.8
20260509144943 12 118 3.2 9.7 0.00 0.71 0.71 96 1010.8
20260509144441 12 106 6.4 11.3 0.00 0.71 0.71 96 1011.0
20260509143938 12 114 6.4 9.7 0.13 0.71 0.71 96 1011.1
20260509143435 12 156 4.8 11.3 0.13 0.71 0.71 96 1010.9
20260509142931 12 137 3.2 9.7 0.00 0.69 0.69 96 1011.3
20260509142428 12 101 4.8 6.4 0.18 0.69 0.69 96 1011.2
20260509141923 12 157 0.0 9.7 0.18 0.69 0.69 96 1011.4
20260509141421 12 195 4.8 9.7 0.00 0.66 0.66 96 1011.5
20260509140917 12 163 3.2 9.7 0.00 0.66 0.66 96 1011.1
20260509140414 11 172 8.0 9.7 0.00 0.66 0.66 96 1011.2
20260509135912 11 101 6.4 11.3 0.13 0.66 0.66 96 1011.3
20260509135409 11 120 4.8 4.8 0.13 0.66 0.66 96 1011.4
20260509134907 11 199 3.2 6.4 0.18 0.64 0.64 96 1011.6
20260509134404 11 138 3.2 9.7 0.30 0.64 0.64 96 1011.7
20260509133901 11 198 6.4 9.7 0.13 0.61 0.61 96 1011.8
20260509133357 11 140 3.2 9.7 0.18 0.58 0.58 96 1011.5
20260509132856 11 137 3.2 14.5 0.30 0.58 0.58 96 1011.7
20260509132354 11 171 3.2 6.4 0.13 0.56 0.56 96 1011.6
20260509131851 11 174 3.2 12.9 0.18 0.53 0.53 96 1011.5
20260509131347 11 118 3.2 11.3 0.30 0.53 0.53 95 1011.5
20260509130844 11 183 6.4 11.3 0.13 0.51 0.51 96 1011.4
20260509130340 11 165 4.8 9.7 0.18 0.48 0.48 96 1011.5
20260509125836 11 190 4.8 9.7 0.18 0.48 0.48 96 1011.8
20260509125333 11 157 3.2 9.7 0.00 0.46 0.46 96 1011.8
20260509124829 11 140 3.2 3.2 0.13 0.46 0.46 96 1011.7
20260509124326 11 114 4.8 6.4 0.13 0.46 0.46 96 1011.8
20260509123824 11 138 1.6 3.2 0.18 0.43 0.43 96 1011.8
20260509123321 11 215 4.8 4.8 0.18 0.43 0.43 96 1011.9
20260509122816 11 129 3.2 4.8 0.18 0.41 0.41 96 1012.0
20260509122314 11 152 1.6 3.2 0.13 0.38 0.38 96 1011.9
20260509121811 11 109 1.6 3.2 0.13 0.38 0.38 96 1012.1
20260509121308 11 149 1.6 6.4 0.18 0.36 0.36 96 1012.0
20260509120806 11 125 1.6 3.2 0.18 0.36 0.36 95 1011.9
20260509120304 11 138 3.2 4.8 0.13 0.33 0.33 95 1012.0
20260509115802 11 126 1.6 6.4 0.13 0.33 0.33 95 1012.0
20260509115258 11 104 1.6 4.8 0.00 0.30 0.30 95 1011.9
20260509114756 11 141 3.2 3.2 0.00 0.30 0.30 95 1011.9
20260509114255 11 163 1.6 3.2 0.18 0.30 0.30 95 1011.9
20260509113753 11 140 0.0 1.6 0.00 0.28 0.28 95 1012.0
20260509113250 11 121 1.6 4.8 0.00 0.28 0.28 95 1012.0
20260509112747 11 181 1.6 6.4 0.13 0.28 0.28 95 1011.9
20260509112244 11 142 1.6 4.8 0.13 0.28 0.28 95 1011.8
20260509111742 11 125 1.6 3.2 0.00 0.25 0.25 95 1011.7
20260509111238 11 101 3.2 4.8 0.00 0.25 0.25 95 1011.6
20260509110735 11 157 0.0 4.8 0.00 0.25 0.25 95 1011.5
20260509110231 11 159 1.6 4.8 0.00 0.25 0.25 95 1011.6
20260509105730 11 147 1.6 4.8 0.18 0.25 0.25 95 1011.6
20260509105227 11 134 3.2 4.8 0.18 0.25 0.25 94 1011.5
20260509104724 11 107 3.2 4.8 0.00 0.23 0.23 94 1011.6
20260509104221 11 108 3.2 4.8 0.00 0.23 0.23 94 1011.5
20260509103719 11 165 3.2 3.2 0.13 0.23 0.23 94 1011.6
20260509103216 11 150 1.6 3.2 0.13 0.23 0.23 94 1011.5
20260509102714 11 136 1.6 3.2 0.00 0.20 0.20 94 1011.5
20260509102211 11 116 0.0 1.6 0.00 0.20 0.20 94 1011.3
20260509101707 11 104 1.6 3.2 0.00 0.20 0.20 94 1011.6
20260509101203 11 140 0.0 3.2 0.00 0.20 0.20 94 1011.5
20260509100701 11 134 0.0 1.6 0.00 0.20 0.20 94 1011.6
20260509100158 11 115 0.0 3.2 0.00 0.20 0.20 94 1011.3
20260509095655 11 167 0.0 1.6 0.18 0.20 0.20 93 1011.6
20260509095152 11 161 0.0 3.2 0.18 0.20 0.20 93 1011.5
20260509094649 11 181 3.2 4.8 0.00 0.18 0.18 93 1011.6
20260509094145 11 132 1.6 4.8 0.00 0.18 0.18 93 1011.6